Showing default

SJ-17, 41838

Orbit data source: Space-Track

SJ-17, 41838 is a Chinese payload satellite in GEO that was launched on Thu, 03 Nov 2016 UTC via a CHANG ZHENG 5/YZ-2 launch vehicle from the Wenchang Satellite Launch Center (WSC). Payload-class satellites include a variety of spacecraft equipped with specific instruments for various scientific and technological missions. These include communications satellites like Starlink; space stations such as the ISS; scientific satellites like the Hubble; Earth observation satellites from companies like Planet Labs, Umbra, and HawkEye 360; GPS; miniature CubeSats for education and research; and military/defense satellites.

Not visible in the next 10 days
Identifier
41838, 2016-065A
Orbit
GEO
Country
Flag of CNCN / PRC
Related business
Manufacturer
CAST
Mission
Partially operational Civil Technology
Bus & Motor
DFH-4?, Unknown motor
Mass
~3,000 kg wet, ~2,500 kg dry
Launch date (UTC)
2016-11-03 (10 years ago)
Launch vehicle
CHANG ZHENG 5/YZ-2
Launch site
Wenchang Satellite Launch Center (WSC)
Object type
Payload
Rocket body
Debris
Shape & HBR
Box + 2 Pan, 5.0 m
Radar Cross Section
14.304 m², Large (>1 m²)

Expand to show TLE details & history
Last TLE update: 6 hours ago

TLE from 6 hours ago
0 SJ-17
1 41838U 16065A   26258.52220771 -.00000259  00000-0  00000+0 0  9997
2 41838   5.9766  71.4708 0001804  69.8536 144.6363  0.99856675 36108
Epoch: 2026-09-15T12:31Z
TLE epoch observation values (Epoch: 2026-09-15T12:31:58.746Z)
Latitude
-3.36306°
Longitude
103.33466°
Altitude
35,909.591 km
Speed
3.07 km/s
True Right ascension
19h 03m 15s
True Declination
-3° 21' 35"
Sunlit
Object was in daylight at epoch
Visualization orbit readout
Latitude
Unknown
Longitude
Unknown
Altitude
Unknown
Speed
Unknown
Apparent Right ascension
Unknown
Apparent Declination
Unknown
Sunlit
N/A
Visualization observer readout
Local Sidereal Time
10:54:40
Azimuth
Unknown
Elevation
Unknown
Doppler factor
Unknown
Orbital elements
Apogee altitude
35,912.047 km
Perigee altitude
35,896.791 km
Semi-major axis
42,282.556 km
Eccentricity
0.00018
Inclination
5.9766°
RAAN
71.4708°
Arg. of periapsis
69.8536°
True anomaly
144.64826°
Mean anomaly
144.6363°
Eccentric anomaly
144.64228°
Mean motion
0.24963 °/min
Orbital period
1,442.12 mins
BSTAR
0
Loading maneuver chart data...
Computing Atmospheric mass density...
Loading historical data...
Loading historical data...
Loading historical data...
Loading historical data...
Loading historical data...
Loading historical data...
Loading historical data...
Other satellites on launch #65 in the year 2016 (2016-11-03 UTC)

Documentation

Showing up to 5 results
|